QPF
0.01 0.01 0.01 0.01 0.01 0.02 0.03 0.03 0.03 0.03 0.04 0.05 0.05 0.04 0.04 0.04 0.04 0.04 0.05 0.05 0.05 0.05 0.06 0.05 0.04 0.04 0.04 0.04 0.05 0.06 0.06 0.05 0.04 0.05 0.05 0.05 0.03 0.02 0.01 0.01 0.02 0.02 0.03
0.01 0.01 0.01 0.01 0.02 0.03 0.02 0.03 0.03 0.03 0.04 0.05 0.04 0.05 0.05 0.04 0.04 0.04 0.04 0.04 0.06 0.07 0.06 0.06 0.05 0.05 0.06 0.06 0.06 0.06 0.06 0.05 0.05 0.06 0.07 0.06 0.04 0.02 0.01 0.01 0.01 0.01 0.02
0.01 0.01 0.01 0.01 0.01 0.03 0.02 0.01 0.02 0.02 0.03 0.05 0.06 0.05 0.05 0.05 0.04 0.03 0.03 0.03 0.04 0.05 0.07 0.07 0.06 0.06 0.06 0.06 0.06 0.06 0.07 0.07 0.06 0.05 0.06 0.07 0.05 0.03 0.02 0.01 0.01 0.01 0.02
0.01 0.01 0.01 0.01 0.01 0.01 0.01 0.01 0.01 0.01 0.02 0.04 0.06 0.06 0.06 0.05 0.04 0.03 0.03 0.04 0.05 0.06 0.06 0.07 0.07 0.07 0.07 0.06 0.06 0.06 0.07 0.07 0.05 0.05 0.04 0.04 0.03 0.03 0.03 0.02 0.01 0.01 0.01
0.00 0.01 0.01 0.01 0.01 0.01 0.01 0.01 0.01 0.01 0.01 0.02 0.04 0.06 0.06 0.05 0.04 0.03 0.03 0.04 0.05 0.04 0.03 0.04 0.06 0.07 0.06 0.06 0.06 0.06 0.06 0.06 0.05 0.05 0.05 0.03 0.03 0.03 0.04 0.04 0.02 0.01 0.01
0.00 0.00 0.01 0.01 0.01 0.01 0.01 0.01 0.02 0.02 0.03 0.03 0.02 0.02 0.03 0.04 0.03 0.03 0.03 0.04 0.04 0.03 0.03 0.03 0.04 0.04 0.05 0.05 0.05 0.04 0.04 0.05 0.05 0.06 0.05 0.04 0.05 0.05 0.05 0.04 0.04 0.03 0.01
0.00 0.01 0.00 0.00 0.01 0.02 0.02 0.02 0.02 0.02 0.03 0.03 0.02 0.02 0.03 0.03 0.03 0.03 0.03 0.03 0.03 0.03 0.03 0.04 0.04 0.04 0.03 0.04 0.05 0.05 0.04 0.04 0.05 0.06 0.05 0.04 0.05 0.04 0.04 0.04 0.03 0.02 0.02
0.00 0.01 0.01 0.01 0.02 0.03 0.03 0.03 0.03 0.03 0.03 0.03 0.01 0.01 0.02 0.03 0.04 0.04 0.03 0.03 0.03 0.03 0.04 0.04 0.03 0.03 0.03 0.04 0.04 0.04 0.04 0.04 0.05 0.05 0.05 0.04 0.04 0.03 0.03 0.03 0.03 0.03 0.03
0.01 0.01 0.01 0.01 0.02 0.03 0.03 0.04 0.05 0.04 0.03 0.03 0.03 0.02 0.02 0.03 0.04 0.04 0.05 0.04 0.03 0.04 0.05 0.04 0.03 0.02 0.03 0.03 0.03 0.03 0.03 0.04 0.04 0.04 0.05 0.05 0.04 0.04 0.03 0.02 0.02 0.04 0.05
0.01 0.01 0.01 0.01 0.01 0.01 0.03 0.03 0.04 0.05 0.03 0.02 0.02 0.02 0.03 0.04 0.04 0.04 0.04 0.03 0.04 0.04 0.04 0.03 0.03 0.02 0.02 0.02 0.02 0.02 0.03 0.03 0.03 0.03 0.04 0.05 0.05 0.05 0.04 0.04 0.04 0.04 0.05
0.01 0.01 0.01 0.00 0.01 0.01 0.01 0.02 0.03 0.03 0.03 0.02 0.01 0.01 0.02 0.03 0.03 0.02 0.03 0.03 0.03 0.03 0.02 0.02 0.02 0.01 0.01 0.01 0.01 0.01 0.01 0.02 0.01 0.01 0.02 0.03 0.04 0.05 0.04 0.05 0.04 0.04 0.04
0.01 0.01 0.01 0.01 0.01 0.01 0.00 0.01 0.02 0.03 0.03 0.03 0.02 0.01 0.02 0.02 0.02 0.03 0.03 0.02 0.02 0.02 0.02 0.01 0.01 0.00 0.00 0.00 0.01 0.01 0.01 0.01 0.01 0.01 0.01 0.02 0.03 0.04 0.04 0.04 0.03 0.03 0.04
0.01 0.01 0.01 0.02 0.02 0.02 0.01 0.01 0.01 0.02 0.02 0.03 0.03 0.02 0.02 0.02 0.03 0.03 0.03 0.03 0.02 0.01 0.01 0.01 0.01 0.00 0.00 0.00 0.00 0.01 0.00 0.00 0.00 0.01 0.01 0.01 0.02 0.04 0.05 0.05 0.04 0.03 0.03
0.02 0.01 0.01 0.02 0.03 0.03 0.02 0.02 0.02 0.02 0.02 0.02 0.04 0.05 0.03 0.02 0.03 0.03 0.02 0.02 0.01 0.01 0.01 0.01 0.01 0.01 0.00 0.00 0.00 0.00 0.00 0.00 0.00 0.01 0.01 0.01 0.02 0.02 0.04 0.05 0.06 0.05 0.05
0.02 0.02 0.02 0.01 0.02 0.03 0.03 0.05 0.07 0.04 0.03 0.02 0.03 0.06 0.06 0.03 0.02 0.02 0.01 0.01 0.01 0.01 0.01 0.01 0.01 0.01 0.00 0.00 0.00 0.00 0.00 0.01 0.01 0.01 0.01 0.01 0.01 0.01 0.02 0.02 0.04 0.05 0.06
0.01 0.02 0.02 0.01 0.01 0.02 0.03 0.05 0.06 0.03 0.03 0.03 0.03 0.03 0.06 0.06 0.03 0.03 0.02 0.01 0.01 0.01 0.01 0.01 0.01 0.01 0.00 0.00 0.01 0.01 0.01 0.01 0.01 0.01 0.01 0.01 0.02 0.01 0.01 0.01 0.02 0.03 0.04
0.02 0.02 0.02 0.02 0.01 0.01 0.01 0.02 0.03 0.02 0.02 0.03 0.04 0.04 0.03 0.03 0.03 0.02 0.02 0.02 0.01 0.01 0.01 0.01 0.01 0.01 0.00 0.01 0.01 0.01 0.01 0.01 0.02 0.02 0.02 0.02 0.02 0.02 0.02 0.01 0.02 0.02 0.02
0.02 0.03 0.04 0.04 0.02 0.02 0.01 0.01 0.01 0.01 0.02 0.03 0.04 0.04 0.04 0.03 0.02 0.02 0.02 0.02 0.02 0.01 0.01 0.01 0.01 0.01 0.01 0.01 0.01 0.01 0.01 0.01 0.01 0.02 0.02 0.03 0.02 0.02 0.03 0.03 0.02 0.03 0.02
0.02 0.04 0.06 0.06 0.05 0.03 0.02 0.01 0.01 0.01 0.01 0.02 0.03 0.03 0.04 0.04 0.03 0.02 0.02 0.03 0.02 0.01 0.01 0.01 0.01 0.01 0.01 0.01 0.01 0.01 0.00 0.01 0.01 0.01 0.01 0.02 0.02 0.02 0.02 0.03 0.03 0.03 0.03
0.02 0.04 0.06 0.06 0.06 0.04 0.02 0.01 0.01 0.01 0.01 0.01 0.02 0.03 0.04 0.06 0.05 0.04 0.03 0.03 0.03 0.03 0.03 0.02 0.01 0.01 0.02 0.01 0.01 0.01 0.01 0.02 0.02 0.02 0.02 0.02 0.02 0.02 0.02 0.03 0.04 0.03 0.04
0.02 0.03 0.05 0.05 0.04 0.04 0.03 0.02 0.01 0.02 0.02 0.02 0.01 0.02 0.03 0.04 0.04 0.04 0.04 0.04 0.04 0.03 0.03 0.02 0.02 0.02 0.01 0.01 0.01 0.01 0.01 0.02 0.03 0.04 0.03 0.03 0.02 0.02 0.02 0.03 0.03 0.03 0.03
0.02 0.02 0.03 0.03 0.03 0.03 0.02 0.02 0.01 0.01 0.01 0.02 0.02 0.02 0.03 0.03 0.04 0.05 0.04 0.03 0.03 0.03 0.03 0.03 0.02 0.02 0.01 0.02 0.02 0.02 0.02 0.02 0.02 0.03 0.03 0.04 0.04 0.03 0.02 0.03 0.03 0.03 0.03
0.03 0.03 0.03 0.03 0.03 0.02 0.01 0.01 0.01 0.01 0.01 0.02 0.02 0.03 0.03 0.03 0.03 0.04 0.04 0.04 0.03 0.04 0.04 0.05 0.05 0.05 0.05 0.05 0.04 0.03 0.02 0.03 0.03 0.03 0.03 0.04 0.04 0.03 0.03 0.03 0.04 0.03 0.03
0.03 0.03 0.03 0.04 0.05 0.03 0.02 0.01 0.01 0.01 0.01 0.02 0.02 0.02 0.03 0.02 0.02 0.02 0.03 0.04 0.03 0.03 0.04 0.04 0.05 0.06 0.06 0.05 0.04 0.03 0.03 0.03 0.03 0.03 0.03 0.03 0.03 0.03 0.03 0.03 0.04 0.04 0.03
0.03 0.03 0.04 0.04 0.05 0.06 0.05 0.03 0.02 0.01 0.02 0.02 0.02 0.02 0.02 0.02 0.03 0.03 0.03 0.03 0.03 0.03 0.03 0.03 0.03 0.04 0.04 0.04 0.04 0.03 0.03 0.02 0.02 0.02 0.03 0.03 0.03 0.02 0.02 0.02 0.02 0.03 0.03
0.02 0.02 0.03 0.03 0.04 0.06 0.06 0.05 0.04 0.03 0.03 0.04 0.03 0.03 0.02 0.03 0.03 0.03 0.02 0.03 0.03 0.03 0.03 0.04 0.03 0.03 0.04 0.04 0.03 0.03 0.03 0.02 0.02 0.02 0.02 0.03 0.03 0.04 0.02 0.02 0.02 0.02 0.02
MSLP
1006.68 1007.64 1008.57 1009.43 1010.17 1010.79 1011.31 1011.75 1012.12 1012.44 1012.72 1012.95 1013.13 1013.26 1013.32 1013.34 1013.32 1013.29 1013.26 1013.27 1013.31 1013.40 1013.53 1013.68 1013.84 1014.01 1014.16 1014.30 1014.41 1014.50 1014.57 1014.60 1014.58 1014.51 1014.38 1014.20 1013.96 1013.69 1013.40 1013.12 1012.87 1012.68 1012.56
1006.14 1007.18 1008.21 1009.15 1009.98 1010.68 1011.26 1011.73 1012.11 1012.42 1012.68 1012.88 1013.04 1013.15 1013.22 1013.25 1013.26 1013.26 1013.27 1013.31 1013.38 1013.49 1013.61 1013.76 1013.90 1014.04 1014.16 1014.28 1014.38 1014.46 1014.51 1014.54 1014.53 1014.47 1014.36 1014.18 1013.95 1013.67 1013.37 1013.07 1012.79 1012.56 1012.39
1005.44 1006.51 1007.58 1008.59 1009.49 1010.27 1010.92 1011.45 1011.88 1012.22 1012.48 1012.69 1012.84 1012.95 1013.03 1013.08 1013.12 1013.17 1013.23 1013.32 1013.43 1013.56 1013.71 1013.84 1013.97 1014.08 1014.17 1014.25 1014.31 1014.36 1014.40 1014.42 1014.41 1014.36 1014.25 1014.09 1013.88 1013.62 1013.32 1013.02 1012.73 1012.48 1012.27
1004.68 1005.69 1006.74 1007.77 1008.72 1009.58 1010.32 1010.95 1011.45 1011.85 1012.17 1012.41 1012.58 1012.71 1012.81 1012.89 1012.97 1013.06 1013.18 1013.32 1013.48 1013.64 1013.80 1013.94 1014.05 1014.13 1014.18 1014.21 1014.23 1014.24 1014.25 1014.24 1014.22 1014.18 1014.09 1013.95 1013.76 1013.53 1013.26 1012.97 1012.68 1012.40 1012.16
1003.97 1004.84 1005.79 1006.78 1007.76 1008.68 1009.51 1010.24 1010.86 1011.37 1011.77 1012.08 1012.31 1012.48 1012.61 1012.72 1012.84 1012.97 1013.13 1013.31 1013.51 1013.70 1013.87 1014.00 1014.10 1014.15 1014.17 1014.15 1014.12 1014.09 1014.06 1014.03 1014.00 1013.95 1013.87 1013.76 1013.60 1013.40 1013.15 1012.88 1012.60 1012.32 1012.05
1003.42 1004.07 1004.86 1005.75 1006.69 1007.64 1008.56 1009.40 1010.16 1010.80 1011.32 1011.73 1012.03 1012.26 1012.44 1012.59 1012.74 1012.90 1013.09 1013.29 1013.51 1013.71 1013.89 1014.02 1014.10 1014.12 1014.10 1014.05 1013.98 1013.91 1013.84 1013.79 1013.73 1013.68 1013.61 1013.51 1013.38 1013.20 1012.99 1012.75 1012.47 1012.19 1011.91
1003.11 1003.48 1004.05 1004.78 1005.64 1006.58 1007.55 1008.50 1009.38 1010.16 1010.81 1011.34 1011.75 1012.05 1012.28 1012.47 1012.64 1012.82 1013.01 1013.22 1013.44 1013.64 1013.81 1013.93 1014.00 1014.00 1013.96 1013.88 1013.78 1013.68 1013.58 1013.50 1013.43 1013.37 1013.29 1013.21 1013.09 1012.94 1012.75 1012.53 1012.28 1012.00 1011.70
1003.08 1003.15 1003.45 1003.98 1004.71 1005.59 1006.57 1007.58 1008.57 1009.48 1010.26 1010.91 1011.42 1011.80 1012.09 1012.31 1012.50 1012.69 1012.88 1013.08 1013.28 1013.46 1013.62 1013.73 1013.78 1013.77 1013.72 1013.63 1013.51 1013.39 1013.28 1013.18 1013.09 1013.01 1012.93 1012.84 1012.73 1012.60 1012.43 1012.23 1011.99 1011.72 1011.44
1003.32 1003.09 1003.12 1003.42 1003.98 1004.76 1005.70 1006.74 1007.79 1008.78 1009.67 1010.42 1011.02 1011.48 1011.82 1012.08 1012.28 1012.47 1012.65 1012.83 1013.01 1013.18 1013.31 1013.41 1013.46 1013.45 1013.40 1013.31 1013.20 1013.08 1012.95 1012.84 1012.73 1012.63 1012.53 1012.42 1012.31 1012.17 1012.02 1011.83 1011.62 1011.37 1011.11
1003.79 1003.30 1003.07 1003.14 1003.52 1004.16 1005.02 1006.02 1007.08 1008.10 1009.05 1009.86 1010.53 1011.05 1011.44 1011.73 1011.95 1012.14 1012.32 1012.49 1012.65 1012.80 1012.93 1013.03 1013.08 1013.08 1013.04 1012.97 1012.87 1012.75 1012.63 1012.49 1012.36 1012.23 1012.10 1011.97 1011.84 1011.69 1011.54 1011.37 1011.18 1010.97 1010.74
1004.43 1003.75 1003.32 1003.19 1003.38 1003.87 1004.60 1005.51 1006.50 1007.50 1008.44 1009.27 1009.96 1010.52 1010.95 1011.27 1011.53 1011.74 1011.92 1012.09 1012.26 1012.41 1012.54 1012.64 1012.71 1012.73 1012.72 1012.67 1012.58 1012.47 1012.34 1012.19 1012.03 1011.86 1011.69 1011.52 1011.35 1011.18 1011.02 1010.87 1010.71 1010.55 1010.37
1005.18 1004.39 1003.83 1003.55 1003.57 1003.90 1004.48 1005.24 1006.12 1007.03 1007.91 1008.70 1009.38 1009.94 1010.40 1010.76 1011.05 1011.29 1011.51 1011.71 1011.89 1012.06 1012.21 1012.33 1012.42 1012.47 1012.48 1012.44 1012.37 1012.27 1012.12 1011.95 1011.75 1011.54 1011.31 1011.09 1010.88 1010.68 1010.52 1010.37 1010.24 1010.13 1010.04
1006.00 1005.18 1004.56 1004.18 1004.08 1004.25 1004.66 1005.26 1005.97 1006.73 1007.49 1008.20 1008.83 1009.38 1009.84 1010.23 1010.57 1010.87 1011.14 1011.39 1011.62 1011.82 1012.00 1012.15 1012.26 1012.32 1012.35 1012.33 1012.26 1012.14 1011.98 1011.77 1011.53 1011.27 1010.99 1010.71 1010.46 1010.24 1010.05 1009.92 1009.83 1009.78 1009.76
1006.83 1006.07 1005.45 1005.04 1004.85 1004.89 1005.13 1005.53 1006.05 1006.63 1007.23 1007.81 1008.36 1008.86 1009.33 1009.75 1010.15 1010.51 1010.86 1011.17 1011.46 1011.71 1011.92 1012.09 1012.22 1012.30 1012.32 1012.30 1012.22 1012.08 1011.89 1011.65 1011.36 1011.05 1010.72 1010.40 1010.11 1009.86 1009.68 1009.56 1009.50 1009.51 1009.57
1007.63 1006.97 1006.42 1006.02 1005.78 1005.71 1005.80 1006.01 1006.32 1006.69 1007.10 1007.53 1007.98 1008.43 1008.88 1009.34 1009.79 1010.23 1010.65 1011.04 1011.39 1011.69 1011.94 1012.13 1012.26 1012.33 1012.35 1012.31 1012.20 1012.04 1011.82 1011.54 1011.22 1010.87 1010.51 1010.16 1009.85 1009.59 1009.41 1009.31 1009.29 1009.35 1009.48
1008.34 1007.82 1007.37 1007.01 1006.75 1006.60 1006.54 1006.57 1006.67 1006.84 1007.06 1007.34 1007.67 1008.07 1008.50 1008.99 1009.49 1010.00 1010.50 1010.96 1011.37 1011.71 1011.98 1012.18 1012.30 1012.36 1012.35 1012.28 1012.15 1011.96 1011.72 1011.42 1011.08 1010.71 1010.34 1009.99 1009.68 1009.44 1009.27 1009.20 1009.22 1009.32 1009.49
1008.91 1008.53 1008.19 1007.88 1007.62 1007.40 1007.22 1007.08 1007.00 1006.97 1007.02 1007.16 1007.39 1007.72 1008.15 1008.65 1009.21 1009.78 1010.34 1010.86 1011.31 1011.68 1011.96 1012.15 1012.26 1012.29 1012.25 1012.16 1012.00 1011.80 1011.55 1011.25 1010.92 1010.57 1010.23 1009.90 1009.63 1009.41 1009.28 1009.24 1009.29 1009.42 1009.62
1009.28 1009.03 1008.77 1008.52 1008.25 1007.98 1007.70 1007.42 1007.18 1007.00 1006.91 1006.92 1007.08 1007.36 1007.78 1008.30 1008.89 1009.51 1010.11 1010.67 1011.15 1011.53 1011.81 1011.98 1012.07 1012.08 1012.02 1011.92 1011.76 1011.56 1011.33 1011.06 1010.77 1010.47 1010.18 1009.92 1009.70 1009.53 1009.45 1009.45 1009.52 1009.67 1009.87
1009.44 1009.26 1009.07 1008.84 1008.57 1008.25 1007.89 1007.51 1007.15 1006.86 1006.66 1006.60 1006.70 1006.96 1007.37 1007.90 1008.51 1009.16 1009.79 1010.36 1010.85 1011.23 1011.50 1011.66 1011.73 1011.73 1011.68 1011.58 1011.44 1011.28 1011.09 1010.89 1010.67 1010.44 1010.23 1010.04 1009.89 1009.80 1009.76 1009.79 1009.88 1010.03 1010.22
1009.38 1009.24 1009.07 1008.85 1008.56 1008.20 1007.78 1007.34 1006.91 1006.55 1006.30 1006.20 1006.27 1006.52 1006.92 1007.46 1008.08 1008.73 1009.37 1009.94 1010.42 1010.79 1011.05 1011.22 1011.29 1011.31 1011.28 1011.22 1011.13 1011.03 1010.92 1010.79 1010.65 1010.52 1010.39 1010.28 1010.20 1010.16 1010.17 1010.23 1010.33 1010.47 1010.63
1009.16 1009.02 1008.84 1008.61 1008.29 1007.90 1007.45 1006.97 1006.52 1006.13 1005.87 1005.77 1005.84 1006.09 1006.50 1007.03 1007.65 1008.28 1008.90 1009.45 1009.91 1010.28 1010.54 1010.72 1010.82 1010.88 1010.91 1010.91 1010.90 1010.88 1010.85 1010.81 1010.76 1010.70 1010.65 1010.60 1010.58 1010.59 1010.63 1010.70 1010.79 1010.91 1011.03
1008.85 1008.68 1008.48 1008.21 1007.87 1007.47 1007.00 1006.53 1006.08 1005.72 1005.48 1005.40 1005.48 1005.74 1006.15 1006.67 1007.25 1007.86 1008.44 1008.96 1009.41 1009.76 1010.04 1010.25 1010.41 1010.53 1010.63 1010.72 1010.81 1010.88 1010.93 1010.96 1010.98 1010.98 1010.97 1010.96 1010.97 1010.99 1011.03 1011.10 1011.18 1011.27 1011.36
1008.53 1008.32 1008.08 1007.80 1007.44 1007.03 1006.59 1006.14 1005.73 1005.41 1005.21 1005.16 1005.27 1005.53 1005.92 1006.41 1006.95 1007.50 1008.04 1008.52 1008.95 1009.31 1009.61 1009.87 1010.09 1010.30 1010.49 1010.68 1010.85 1011.00 1011.12 1011.21 1011.26 1011.28 1011.28 1011.27 1011.26 1011.27 1011.29 1011.33 1011.39 1011.46 1011.52
1008.27 1008.03 1007.77 1007.46 1007.11 1006.71 1006.30 1005.89 1005.54 1005.26 1005.11 1005.09 1005.20 1005.45 1005.81 1006.25 1006.73 1007.22 1007.70 1008.14 1008.55 1008.92 1009.25 1009.57 1009.87 1010.17 1010.46 1010.73 1010.98 1011.19 1011.36 1011.46 1011.51 1011.52 1011.48 1011.43 1011.38 1011.34 1011.32 1011.33 1011.36 1011.41 1011.46
1008.11 1007.86 1007.58 1007.28 1006.93 1006.56 1006.18 1005.81 1005.50 1005.27 1005.15 1005.13 1005.24 1005.45 1005.76 1006.13 1006.54 1006.96 1007.38 1007.79 1008.18 1008.56 1008.94 1009.32 1009.70 1010.08 1010.45 1010.80 1011.10 1011.35 1011.52 1011.61 1011.63 1011.58 1011.49 1011.37 1011.26 1011.16 1011.09 1011.06 1011.07 1011.10 1011.15
1008.04 1007.80 1007.53 1007.23 1006.90 1006.55 1006.19 1005.86 1005.57 1005.35 1005.22 1005.19 1005.26 1005.42 1005.65 1005.94 1006.27 1006.63 1007.00 1007.38 1007.77 1008.17 1008.60 1009.03 1009.48 1009.93 1010.37 1010.76 1011.09 1011.34 1011.49 1011.55 1011.51 1011.40 1011.24 1011.06 1010.88 1010.73 1010.62 1010.56 1010.55 1010.59 1010.64
Thickness
5771 5767 5762 5758 5754 5750 5746 5743 5740 5738 5736 5735 5734 5732 5731 5731 5730 5730 5729 5727 5727 5726 5725 5726 5724 5724 5723 5721 5721 5720 5718 5717 5718 5715 5713 5715 5715 5714 5714 5714 5714 5713 5712
5766 5762 5758 5755 5752 5748 5745 5742 5739 5737 5735 5734 5732 5731 5730 5730 5729 5728 5726 5725 5725 5724 5724 5723 5723 5722 5720 5718 5717 5716 5716 5716 5715 5713 5710 5708 5709 5709 5712 5711 5710 5710 5710
5763 5759 5756 5753 5750 5747 5744 5742 5739 5736 5734 5733 5731 5729 5727 5727 5726 5725 5724 5724 5723 5722 5722 5721 5721 5720 5719 5718 5715 5714 5713 5712 5712 5713 5710 5705 5705 5706 5707 5706 5707 5706 5706
5764 5760 5756 5752 5750 5748 5745 5741 5738 5735 5732 5730 5729 5726 5724 5723 5724 5723 5723 5722 5721 5720 5719 5719 5718 5718 5718 5716 5715 5715 5713 5710 5709 5708 5708 5708 5708 5702 5701 5703 5704 5704 5703
5763 5759 5756 5754 5752 5749 5745 5741 5737 5734 5731 5729 5727 5724 5723 5723 5723 5722 5719 5718 5718 5718 5718 5717 5716 5715 5715 5714 5713 5711 5710 5709 5708 5707 5706 5705 5703 5703 5699 5696 5698 5700 5702
5761 5759 5757 5754 5750 5747 5744 5740 5735 5732 5730 5728 5726 5724 5722 5721 5720 5718 5717 5716 5717 5716 5716 5715 5713 5713 5713 5711 5709 5708 5707 5707 5705 5705 5704 5703 5701 5700 5699 5696 5695 5695 5699
5758 5755 5753 5750 5747 5744 5741 5738 5734 5730 5729 5727 5725 5723 5721 5720 5718 5717 5716 5716 5716 5715 5713 5714 5711 5710 5709 5708 5707 5705 5705 5704 5702 5701 5702 5702 5702 5701 5699 5696 5695 5694 5697
5756 5754 5752 5750 5746 5743 5740 5737 5733 5730 5728 5726 5724 5722 5720 5719 5719 5717 5717 5716 5716 5715 5713 5711 5710 5708 5708 5707 5705 5705 5703 5702 5701 5700 5699 5698 5699 5699 5698 5696 5693 5691 5693
5751 5751 5750 5748 5746 5742 5739 5736 5732 5729 5726 5724 5722 5720 5718 5718 5718 5716 5715 5715 5714 5714 5711 5709 5708 5706 5705 5704 5703 5703 5701 5700 5699 5698 5697 5696 5697 5697 5697 5696 5694 5690 5686
5748 5747 5746 5745 5744 5741 5738 5734 5731 5728 5726 5724 5721 5720 5717 5716 5715 5714 5713 5713 5711 5711 5709 5707 5705 5704 5703 5702 5701 5700 5700 5698 5696 5695 5694 5693 5695 5694 5693 5692 5691 5690 5687
5744 5743 5742 5741 5739 5738 5735 5731 5728 5725 5724 5722 5720 5718 5716 5715 5713 5712 5712 5710 5709 5707 5706 5705 5704 5702 5701 5701 5699 5699 5697 5695 5694 5693 5692 5690 5691 5691 5690 5690 5689 5687 5686
5739 5739 5738 5736 5734 5732 5730 5727 5726 5723 5722 5720 5718 5716 5714 5713 5711 5710 5709 5708 5706 5706 5705 5703 5702 5701 5700 5698 5697 5697 5696 5694 5692 5691 5689 5688 5688 5686 5687 5686 5686 5685 5683
5732 5733 5731 5729 5728 5726 5725 5723 5721 5719 5719 5718 5715 5713 5711 5710 5709 5708 5706 5705 5704 5703 5703 5701 5700 5699 5698 5697 5696 5695 5694 5693 5691 5689 5687 5686 5685 5683 5684 5683 5683 5683 5682
5724 5723 5723 5722 5722 5721 5720 5718 5717 5716 5715 5714 5712 5709 5708 5707 5707 5706 5704 5702 5701 5700 5699 5699 5698 5697 5697 5696 5695 5693 5691 5690 5688 5687 5686 5684 5683 5682 5681 5680 5679 5679 5678
5717 5717 5715 5715 5715 5715 5714 5713 5712 5712 5711 5710 5708 5707 5706 5705 5703 5702 5700 5699 5698 5698 5697 5697 5696 5695 5695 5694 5692 5690 5689 5686 5685 5685 5684 5683 5680 5679 5677 5679 5678 5676 5675
5711 5711 5710 5709 5709 5709 5709 5708 5707 5707 5706 5705 5705 5704 5703 5701 5699 5698 5697 5696 5695 5695 5695 5694 5694 5693 5693 5689 5686 5685 5686 5684 5683 5682 5681 5680 5678 5675 5672 5671 5671 5670 5671
5705 5704 5704 5703 5703 5704 5705 5703 5704 5703 5702 5701 5701 5700 5699 5697 5697 5696 5694 5692 5691 5691 5691 5691 5691 5690 5688 5684 5681 5679 5681 5681 5681 5679 5678 5679 5679 5674 5674 5670 5667 5666 5665
5698 5699 5699 5699 5700 5700 5700 5700 5700 5699 5697 5697 5697 5697 5695 5694 5693 5692 5691 5690 5688 5688 5688 5687 5688 5687 5686 5681 5678 5676 5677 5679 5678 5677 5676 5674 5674 5673 5670 5670 5669 5668 5667
5693 5693 5694 5694 5694 5694 5694 5694 5694 5694 5693 5693 5693 5694 5693 5691 5689 5688 5687 5686 5685 5684 5685 5685 5685 5684 5683 5678 5675 5671 5676 5676 5675 5675 5674 5672 5671 5667 5664 5665 5665 5665 5665
5687 5687 5688 5688 5687 5687 5688 5687 5687 5688 5689 5690 5690 5690 5689 5687 5686 5685 5684 5683 5682 5682 5683 5683 5682 5682 5681 5676 5672 5668 5675 5675 5674 5672 5671 5667 5666 5663 5660 5662 5662 5661 5662
5680 5681 5681 5681 5681 5681 5681 5680 5682 5683 5685 5686 5687 5686 5685 5684 5683 5682 5680 5680 5680 5680 5679 5679 5679 5679 5677 5673 5669 5667 5671 5672 5671 5671 5670 5669 5662 5658 5656 5656 5658 5657 5657
5673 5674 5673 5674 5675 5675 5675 5675 5676 5678 5680 5681 5681 5681 5680 5680 5681 5678 5677 5676 5676 5675 5675 5675 5675 5676 5675 5671 5667 5663 5663 5664 5666 5666 5668 5666 5658 5655 5652 5652 5653 5651 5649
5664 5665 5666 5666 5667 5668 5669 5669 5670 5673 5675 5675 5675 5675 5675 5675 5676 5675 5673 5672 5672 5673 5674 5673 5673 5673 5673 5669 5663 5659 5658 5657 5658 5661 5659 5656 5652 5650 5649 5648 5647 5646 5648
5655 5656 5658 5659 5659 5661 5662 5663 5666 5667 5668 5668 5669 5670 5669 5669 5669 5669 5670 5670 5669 5670 5670 5670 5670 5669 5668 5667 5663 5660 5656 5652 5652 5654 5652 5648 5647 5646 5647 5646 5645 5646 5648
5646 5647 5649 5651 5652 5654 5655 5657 5659 5659 5660 5661 5663 5664 5664 5664 5663 5663 5664 5665 5665 5666 5664 5666 5666 5664 5663 5661 5656 5656 5656 5654 5653 5650 5649 5649 5648 5647 5648 5648 5647 5647 5647
5637 5639 5641 5643 5644 5646 5647 5649 5651 5652 5652 5653 5655 5657 5659 5658 5658 5657 5656 5654 5655 5654 5654 5654 5654 5656 5654 5650 5648 5645 5644 5643 5641 5641 5645 5646 5647 5647 5647 5647 5646 5645 5644